GFSGL_925_rhum_129.txt.gz
RH
100 100 100 99 98 98 98 99 100 100 100 100 100 100 100 100 99 99 97 99 99 94 98 100 100 90 94 96 91 92 91 98 95 82 78 70 77 71 83 83 81 80 74
100 99 98 98 98 98 98 98 100 100 100 100 100 100 100 100 100 100 99 96 97 98 99 100 100 100 96 86 92 94 91 90 94 91 88 87 79 82 80 80 83 83 82
97 97 97 98 98 98 98 99 100 100 100 100 100 100 100 100 100 100 100 100 100 100 100 99 100 100 100 97 94 94 95 90 94 93 85 90 91 82 98 98 96 94 89
96 96 97 97 98 98 98 96 98 100 100 100 100 100 100 100 100 100 100 100 100 100 100 100 100 100 100 100 99 100 90 87 93 94 92 97 100 99 100 100 99 100 98
92 93 96 96 97 97 97 100 100 100 100 100 100 100 100 100 100 100 100 100 100 100 100 100 100 100 100 100 99 99 100 97 90 95 93 95 99 98 98 99 100 100 99
89 87 88 89 98 99 99 100 100 100 100 100 100 100 99 99 100 100 100 100 100 100 100 100 100 100 100 100 99 98 99 100 100 100 96 96 99 100 100 100 100 100 99
88 85 82 84 89 93 98 98 100 100 100 100 100 100 100 99 97 98 99 100 100 100 100 100 100 100 100 100 100 99 99 93 97 96 100 100 99 98 100 100 100 100 100
88 90 87 86 85 86 91 96 99 100 100 100 100 100 99 98 100 98 97 97 99 100 100 100 100 100 100 99 100 100 100 100 98 98 94 94 95 97 99 98 99 100 98
91 94 93 93 92 88 93 96 98 98 100 100 100 99 98 92 92 100 100 99 99 100 99 100 97 97 98 98 99 99 100 98 98 98 99 99 97 96 95 94 95 98 100
87 89 89 93 95 92 91 96 96 98 97 98 100 100 95 98 85 89 98 100 99 100 100 100 100 99 100 100 99 99 98 99 97 96 95 94 96 96 98 93 96 99 99
88 83 75 80 87 91 90 92 95 96 94 94 95 99 100 93 91 87 91 100 100 98 100 100 99 100 100 100 100 100 100 98 98 99 98 99 97 94 95 97 97 96 98
95 97 87 78 86 89 86 85 90 96 96 94 92 92 98 100 90 90 88 92 99 100 100 100 98 97 100 100 100 100 100 100 100 100 99 100 100 100 88 90 94 96 95
80 90 98 92 84 89 93 88 90 96 94 96 93 94 93 96 96 93 92 92 89 93 95 97 96 96 96 93 98 99 88 100 100 100 100 100 100 92 87 79 76 86 86
74 78 82 93 95 97 89 88 86 90 96 91 98 95 93 90 90 89 93 97 76 66 63 67 80 80 73 82 85 86 84 94 100 100 100 100 98 100 98 89 96 84 82
74 74 74 76 73 77 96 85 79 78 81 87 80 96 93 89 80 81 81 84 91 89 77 79 90 95 97 96 96 95 94 84 96 100 100 100 100 100 99 94 89 92 96
80 77 76 66 65 63 63 74 85 80 77 78 76 77 80 78 78 78 80 78 83 81 72 88 90 97 100 100 100 100 92 85 83 95 96 100 100 100 100 97 83 89 96
68 71 69 69 73 75 76 77 73 71 77 82 78 73 75 76 78 76 74 76 75 63 82 88 89 87 100 100 98 96 82 58 73 88 97 100 100 97 100 100 100 86 88
62 65 72 65 65 74 80 80 80 83 84 81 78 84 78 81 82 85 79 61 70 73 80 80 77 78 84 94 83 70 64 54 54 74 93 97 99 100 100 100 100 100 91
72 70 68 77 82 83 84 90 89 88 90 95 94 88 90 88 89 89 87 82 76 74 73 71 75 77 71 70 71 76 78 72 63 64 90 96 97 100 100 100 100 92 92
76 80 81 73 84 81 84 83 87 89 86 91 98 100 94 90 92 87 97 100 93 85 82 79 76 78 80 74 67 75 78 81 74 69 82 95 97 98 100 100 100 100 95
78 79 73 74 81 83 78 78 80 82 89 95 95 99 97 90 94 83 85 99 100 100 99 92 78 80 84 84 76 76 86 90 79 77 79 96 99 100 97 99 100 100 92
71 74 76 83 84 78 77 81 82 83 89 90 92 90 90 87 90 89 89 89 84 83 97 100 100 83 87 88 87 83 88 94 78 76 77 85 93 96 100 99 99 97 95
78 75 77 84 83 81 80 84 84 85 89 88 87 90 95 98 96 91 87 82 78 78 87 100 100 98 95 100 96 92 93 87 80 88 84 93 97 98 97 98 100 100 98
84 80 81 86 83 83 82 84 87 92 90 88 88 88 92 100 99 91 85 81 77 73 69 72 94 99 100 98 100 100 94 82 81 91 93 92 100 100 85 89 98 99 100
86 82 82 83 82 82 82 86 92 94 92 92 92 90 88 95 100 100 92 87 83 80 75 71 68 67 89 97 97 100 100 90 88 91 94 93 100 96 83 96 100 100 98
85 84 86 85 85 86 87 93 97 96 94 94 90 86 86 94 100 100 96 92 91 85 79 72 68 66 74 91 95 98 100 100 95 91 94 95 100 94 94 100 99 100 100

GFSGL_925_rhum_132.txt.gz
RH
100 98 99 97 97 96 97 97 98 98 98 99 100 100 100 100 100 100 100 99 97 97 100 98 89 97 100 100 99 99 100 96 91 80 78 78 80 84 83 88 100 99 86
94 97 97 98 96 97 97 97 97 99 98 100 100 100 100 100 100 100 100 100 100 99 100 100 95 99 100 100 100 100 99 98 94 89 84 85 76 88 74 80 83 100 100
93 97 96 95 97 97 97 97 97 98 98 99 100 100 100 100 100 100 100 100 100 100 100 100 100 100 100 100 100 99 96 97 97 89 81 86 82 89 94 92 100 100 99
87 94 95 95 96 96 96 96 97 98 99 99 99 100 100 100 100 100 100 100 100 100 100 100 100 100 100 100 100 100 100 100 97 94 87 90 88 89 95 88 100 99 98
87 91 90 90 97 99 99 99 98 98 98 100 100 100 100 100 100 100 100 100 100 100 100 100 100 100 100 100 100 100 100 100 100 98 92 89 91 98 97 97 99 97 100
86 88 81 81 87 96 100 100 100 100 100 100 99 99 99 100 100 99 100 100 100 100 100 100 100 100 100 100 100 100 100 100 100 99 100 100 100 100 100 100 100 99 99
92 88 83 83 86 93 100 100 100 100 100 100 100 98 97 99 100 100 100 98 98 99 99 100 100 100 100 100 100 100 100 100 100 100 100 100 99 99 98 100 100 99 100
90 94 83 86 88 89 94 100 100 100 100 100 100 100 95 90 94 100 100 100 100 97 98 97 99 100 100 96 100 99 100 100 100 100 100 100 100 99 100 100 98 99 99
89 88 94 91 94 92 96 100 100 100 100 100 100 100 100 90 86 93 99 98 100 100 100 100 100 99 98 98 94 97 98 97 97 99 98 99 95 99 96 97 96 95 100
86 72 71 88 86 92 95 99 100 97 97 100 100 100 96 94 84 86 86 96 100 100 100 100 100 100 100 100 100 97 96 97 95 94 94 96 96 96 96 96 99 98 98
75 68 67 73 80 83 86 93 98 100 91 93 96 100 100 92 89 84 86 94 100 100 100 100 99 99 100 100 100 100 100 95 93 100 99 99 94 94 95 96 96 96 97
80 78 77 73 73 75 83 86 89 91 97 91 92 94 96 97 87 89 86 86 81 91 100 98 93 93 97 95 96 100 85 83 90 97 98 100 100 100 90 87 96 96 96
85 94 92 86 76 72 80 91 99 88 96 97 92 95 95 94 94 87 88 86 79 78 91 93 89 83 78 63 88 85 71 86 98 100 100 100 100 100 92 76 66 76 75
74 75 78 91 87 84 76 78 90 91 91 91 98 97 92 89 86 88 86 68 43 44 45 49 65 65 54 58 48 43 57 80 100 100 100 96 88 90 100 94 94 84 86
65 63 64 61 65 75 86 82 77 78 77 83 76 86 87 85 77 77 79 81 70 67 57 60 71 84 85 82 73 63 54 63 87 99 100 100 96 97 99 100 94 89 89
80 67 64 63 64 62 60 68 84 81 78 78 76 77 78 77 76 74 76 76 75 75 65 77 83 87 92 91 90 85 76 67 78 98 96 100 100 100 100 100 100 96 93
68 62 65 70 72 75 77 78 77 72 79 90 85 80 78 78 81 80 76 75 78 55 72 74 78 81 86 84 83 84 83 70 62 77 94 100 100 100 100 100 100 100 97
68 70 72 73 80 87 88 90 89 93 95 93 93 94 92 86 88 92 96 72 73 71 76 80 80 78 79 76 77 82 81 71 67 65 82 94 98 100 100 100 100 100 100
69 69 76 87 87 88 85 84 84 84 93 94 85 82 86 96 84 78 94 99 100 98 94 85 81 81 80 77 75 79 82 76 69 69 73 84 93 98 100 100 100 100 100
79 82 75 78 79 79 76 76 78 82 91 96 100 100 95 80 83 85 87 92 94 98 100 100 100 95 93 91 85 84 83 80 73 76 75 77 81 90 100 100 100 100 100
82 76 76 78 79 76 76 78 81 81 86 94 99 100 90 84 88 87 86 84 83 82 94 100 100 100 100 100 100 95 94 89 76 80 83 81 89 95 96 99 100 100 100
73 76 80 81 80 79 81 83 82 83 86 85 85 86 89 88 90 86 84 81 79 77 76 85 100 100 100 100 100 100 100 100 82 81 86 86 88 96 98 87 88 98 100
77 77 80 83 82 82 79 80 83 86 87 86 84 83 86 100 97 94 91 86 82 78 74 72 72 73 75 93 100 100 100 100 96 87 90 95 93 99 97 92 98 100 100
82 81 79 82 82 80 80 83 89 89 88 87 85 84 84 91 99 97 96 92 84 78 75 73 71 68 66 65 81 98 100 100 100 95 93 95 97 100 100 96 100 100 100
86 82 80 82 81 81 82 89 91 91 90 87 84 81 79 82 90 96 97 91 84 79 76 73 70 68 64 64 76 95 95 100 100 99 96 89 95 100 100 100 100 100 99
86 84 83 84 84 86 87 90 91 91 87 85 80 76 80 90 96 97 93 90 88 84 79 75 72 69 67 66 86 98 95 100 100 100 95 88 95 97 100 100 97 97 100

GFSGL_925_rhum_138.txt.gz
RH
87 91 99 100 100 99 99 99 99 99 100 99 97 97 97 98 99 100 100 100 100 100 100 100 99 97 95 86 90 89 98 87 92 82 78 86 91 89 83 78 91 91 81
86 96 100 100 100 100 99 98 99 99 99 98 97 98 98 98 98 100 100 100 100 100 100 100 100 100 99 99 99 100 99 96 99 84 80 98 99 84 88 94 90 87 86
92 93 96 99 100 100 100 99 98 98 98 98 97 98 98 98 98 98 99 100 100 100 100 100 100 100 100 100 99 99 100 100 99 99 91 90 76 92 96 88 82 84 83
96 94 95 96 99 98 96 93 93 97 97 95 97 97 97 98 98 98 100 100 100 100 100 100 100 100 100 100 100 100 100 99 98 99 99 96 98 100 99 97 94 92 88
96 95 96 97 97 94 91 87 85 92 94 93 88 94 97 97 97 97 98 98 99 99 99 99 99 100 100 100 100 100 100 100 98 97 97 98 99 99 100 100 100 99 100
92 96 96 96 97 93 92 88 91 89 91 98 93 92 94 94 92 99 100 98 98 100 100 100 100 98 97 100 100 100 100 99 97 95 98 95 98 100 100 100 100 98 99
85 94 96 96 96 96 92 92 90 91 92 90 96 91 89 89 89 89 93 97 98 98 100 100 100 100 100 99 100 100 100 100 100 100 99 100 100 100 99 100 100 100 100
66 78 92 96 96 95 93 91 90 88 90 88 90 90 85 83 88 86 89 89 92 94 94 95 95 98 100 100 100 99 100 98 100 100 100 100 100 100 100 100 99 100 100
60 61 65 85 93 93 91 90 88 86 86 87 89 90 88 85 83 88 81 80 82 87 90 88 89 92 92 95 91 90 91 98 100 99 99 100 100 100 100 97 98 91 94
80 72 67 69 81 88 89 87 87 85 84 82 84 86 87 86 80 86 85 72 78 73 80 84 85 81 87 91 92 87 87 90 90 89 91 90 95 97 100 95 99 93 92
91 89 91 83 86 82 84 84 81 79 79 77 77 80 81 83 79 81 88 81 78 75 76 79 83 82 78 84 90 92 90 89 85 84 83 86 87 90 93 96 97 100 94
94 95 96 95 94 91 87 84 82 75 73 72 71 68 72 78 81 78 82 88 80 79 82 83 86 82 82 80 82 86 88 84 80 77 76 81 83 86 85 89 96 98 97
93 93 92 94 92 90 86 81 75 75 71 70 69 70 72 74 77 81 82 85 85 79 82 81 79 79 79 79 78 81 80 80 77 75 75 77 76 77 75 74 74 78 82
91 91 89 87 89 84 77 76 76 74 72 73 72 73 74 76 79 80 79 81 84 81 80 78 75 72 72 71 71 71 73 73 74 73 73 71 67 64 62 64 64 63 64
84 77 70 77 78 80 81 79 75 81 78 73 76 75 77 78 79 81 82 82 82 78 75 73 73 69 66 66 65 67 68 67 68 68 69 67 65 63 62 60 60 61 60
67 64 64 64 65 65 67 75 86 85 84 88 80 83 82 81 82 83 84 83 81 78 72 73 75 73 67 64 65 66 66 68 69 66 67 68 68 65 64 60 60 61 59
51 54 63 61 60 63 62 60 68 93 93 89 88 85 85 88 90 91 88 79 75 69 68 71 73 72 65 64 65 67 69 72 70 68 70 72 74 68 65 62 60 63 60
65 72 70 72 73 74 74 74 73 71 72 79 93 94 93 92 93 92 86 68 65 65 63 65 69 68 64 62 68 72 75 76 76 74 74 75 78 70 68 64 62 66 63
74 75 80 83 83 83 80 77 75 74 74 74 73 77 84 87 86 87 87 80 72 68 65 64 68 71 71 71 81 83 82 80 81 78 77 77 80 74 69 67 68 68 64
87 93 86 83 84 80 77 73 71 71 71 72 75 80 76 72 78 80 83 86 80 75 77 70 72 78 82 81 82 84 79 78 77 77 78 79 81 77 72 70 70 68 62
83 87 88 81 77 76 75 73 71 71 69 67 76 94 83 77 76 78 78 87 86 83 87 85 84 85 83 83 81 85 84 85 84 87 88 81 81 77 72 71 71 70 66
82 82 80 79 78 80 74 74 75 73 71 70 74 84 94 85 80 80 84 96 98 94 92 93 95 92 89 96 95 95 89 87 88 88 89 87 83 77 74 73 72 73 72
81 80 79 77 79 83 82 77 79 79 79 82 80 80 82 89 92 90 96 100 100 100 100 100 100 100 100 100 100 100 98 93 96 98 96 91 86 80 77 75 72 73 76
82 86 81 85 89 84 86 86 88 79 82 85 88 88 90 93 97 100 100 100 100 100 100 100 100 100 100 100 100 100 100 100 100 100 100 96 90 83 80 74 73 76 78
89 91 92 91 91 88 92 85 87 89 90 90 92 94 91 95 94 100 100 100 100 100 100 100 100 100 100 100 100 100 100 100 100 100 100 99 94 86 79 76 77 78 78
96 92 93 93 92 91 89 88 89 90 89 92 96 99 100 99 99 100 100 100 100 100 100 100 100 100 100 100 100 100 100 100 100 100 100 99 92 84 82 80 77 80 80

GFSGL_925_rhum_141.txt.gz
RH
68 78 95 100 100 100 100 99 99 99 100 99 99 99 98 97 98 98 98 100 99 100 99 100 100 100 100 99 88 85 84 84 89 78 84 73 77 78 86 75 65 88 86
74 79 88 93 97 100 100 100 98 98 98 98 99 98 97 97 97 97 98 98 99 100 100 100 100 100 100 100 100 100 100 98 99 89 87 86 84 87 83 92 95 75 95
91 91 91 94 93 95 94 90 90 93 97 98 98 98 97 97 98 96 98 98 98 98 100 100 100 100 100 100 100 99 99 100 100 100 98 96 98 99 99 98 97 99 97
97 93 93 95 95 94 90 82 78 81 82 76 85 94 96 97 96 97 96 97 98 97 98 99 100 100 100 100 100 100 98 98 97 94 99 100 100 99 96 99 95 97 96
95 94 95 95 93 89 85 80 80 83 89 84 79 83 84 88 94 98 98 97 98 98 97 98 99 98 100 100 100 100 99 96 94 93 92 93 97 97 97 98 100 94 100
94 96 95 94 94 91 89 82 88 85 88 93 91 89 92 91 86 89 92 92 94 97 98 98 98 98 98 97 100 100 100 100 98 96 97 95 98 100 98 100 100 99 96
87 92 95 94 94 94 90 90 89 89 89 89 93 91 92 92 86 87 90 92 94 94 96 96 94 97 96 97 99 100 100 100 100 99 97 99 99 100 100 98 99 100 100
56 72 92 94 93 93 92 90 89 88 87 86 90 90 90 89 88 85 88 88 90 91 90 92 95 94 93 92 92 91 97 99 96 97 99 100 100 99 99 99 94 99 100
51 53 58 83 89 90 90 89 89 85 85 85 87 89 90 87 88 88 81 81 83 88 89 83 87 89 87 93 91 90 90 92 94 93 94 96 96 97 100 97 97 89 89
72 61 62 66 75 85 87 88 89 87 87 83 85 88 85 86 82 87 85 76 79 77 85 89 83 83 85 87 94 90 91 90 88 88 88 89 92 92 94 94 100 92 93
92 85 86 78 80 79 80 80 77 76 77 75 76 80 86 85 82 83 86 83 81 78 80 85 85 81 80 84 86 87 85 86 85 84 84 86 84 86 85 87 89 98 90
96 94 93 92 91 88 86 83 80 76 71 70 70 68 72 78 82 81 84 83 80 78 83 83 81 79 80 78 81 82 84 83 81 81 81 82 81 79 76 76 75 76 90
93 93 91 91 91 93 88 84 74 75 72 69 68 70 72 75 78 82 80 81 83 81 82 78 76 75 76 77 76 78 79 79 80 79 78 77 71 66 65 65 64 64 65
90 89 88 88 88 89 78 77 80 82 73 72 71 75 75 77 80 82 83 82 86 84 80 78 75 70 68 69 71 73 73 72 74 75 72 69 64 62 59 59 58 60 60
83 82 77 79 79 82 91 89 78 85 83 78 95 78 78 80 83 83 82 80 80 83 73 72 72 69 65 66 66 68 70 68 68 68 68 67 65 61 59 57 57 59 58
68 68 63 64 64 67 71 78 84 84 84 84 83 88 93 85 86 85 81 77 76 71 69 70 72 71 64 61 63 64 67 69 68 66 67 67 67 64 62 58 57 59 58
44 52 57 60 58 58 57 60 92 95 90 77 83 88 87 87 87 86 83 70 66 64 65 68 70 69 62 58 61 64 66 72 70 69 71 72 73 68 65 60 58 61 59
49 54 58 63 67 69 70 71 70 70 78 93 91 78 88 87 84 84 82 68 63 62 58 59 64 63 60 59 67 71 76 80 77 74 76 78 80 72 68 63 62 67 61
69 68 74 78 81 80 77 74 72 71 70 70 68 72 73 77 84 82 82 79 72 66 63 60 62 66 68 69 78 82 82 79 83 82 81 82 85 77 75 67 69 70 66
77 85 82 81 81 77 75 70 68 67 67 67 72 80 75 72 74 75 77 82 78 72 75 70 70 76 80 79 78 81 77 78 77 77 85 90 86 81 79 72 74 70 63
82 83 78 76 71 71 69 68 66 66 65 62 74 95 55 87 71 72 73 81 82 80 83 84 82 84 82 83 82 86 84 84 82 86 88 87 88 86 88 78 78 72 66
78 78 75 72 71 71 66 65 68 67 65 65 70 88 77 82 76 75 77 90 93 89 89 90 95 91 89 96 96 96 91 88 88 92 90 88 91 86 92 79 78 75 76
73 72 69 68 68 78 73 68 72 74 74 77 75 74 76 82 85 84 89 95 95 98 100 100 100 100 99 100 100 100 98 94 97 99 98 94 93 89 87 80 77 79 77
75 77 70 72 81 73 76 79 84 71 76 78 81 82 82 84 89 92 94 99 100 100 100 100 100 100 100 100 100 100 100 100 100 100 100 100 95 95 88 86 77 81 83
79 82 80 80 85 81 87 76 79 80 82 82 83 84 82 87 84 92 98 100 100 100 100 100 100 100 100 100 100 100 100 100 100 100 100 100 100 96 97 80 80 79 82
86 82 81 82 83 83 81 81 81 83 82 84 86 88 91 90 89 98 100 100 100 100 100 100 100 100 100 100 100 100 100 100 100 100 100 100 96 98 86 85 81 80 82

GFSGL_925_rhum_144.txt.gz
RH
69 78 88 89 90 92 90 93 91 97 95 96 96 96 97 98 97 97 97 98 98 98 98 99 99 100 99 99 99 99 97 96 90 77 78 76 73 84 83 89 77 78 81
83 88 90 88 89 89 87 90 84 90 93 95 96 96 97 97 97 98 98 98 98 98 99 99 100 100 100 99 99 100 100 94 99 91 76 98 97 90 88 99 100 100 100
95 93 91 90 88 90 86 84 84 85 88 84 92 97 96 96 97 97 97 97 97 98 98 99 99 100 100 100 100 100 98 100 100 100 100 96 99 96 95 95 91 96 95
90 93 91 92 89 91 84 84 86 88 93 87 91 94 90 91 93 96 96 96 97 97 96 97 99 100 99 100 100 100 100 98 97 96 96 97 100 97 98 100 97 96 93
80 90 92 92 93 88 89 85 89 88 92 96 93 96 98 88 87 91 95 98 97 98 97 96 96 98 98 99 100 100 100 98 96 93 94 96 99 99 100 100 100 100 99
75 87 91 89 89 90 90 91 88 90 89 87 94 94 96 97 86 86 91 96 98 97 100 98 97 98 99 98 97 97 100 100 98 95 96 96 99 100 100 100 100 100 97
70 75 85 90 87 88 87 90 91 90 84 92 93 96 95 93 90 88 94 95 98 99 97 100 96 96 96 98 96 100 97 96 97 99 96 100 99 100 100 100 100 99 99
70 88 81 87 84 86 86 88 90 90 90 80 90 94 94 90 90 89 90 92 93 95 94 92 96 92 92 94 99 94 98 96 92 95 99 97 96 95 99 98 94 99 99
52 59 77 84 88 86 87 82 87 86 91 93 88 86 91 86 86 91 90 88 89 93 93 84 85 88 85 92 95 95 97 97 94 93 90 93 92 91 94 97 93 87 94
63 63 69 73 86 87 87 82 79 82 84 85 93 89 86 86 83 83 88 89 91 92 92 90 81 80 83 85 93 93 95 94 89 87 88 81 86 78 83 75 100 90 92
83 87 82 80 83 82 84 83 78 77 75 75 77 82 89 86 83 82 83 89 89 91 91 90 79 80 80 82 86 85 88 89 86 87 87 85 77 76 70 66 66 97 77
88 90 91 91 88 88 86 79 78 78 74 74 77 80 82 85 85 85 82 85 87 89 85 77 77 77 79 79 80 83 83 86 86 85 84 84 80 75 67 66 64 65 89
93 92 93 89 86 87 89 91 89 78 77 80 86 86 89 85 87 89 88 86 89 95 84 78 75 73 75 76 79 75 78 81 83 84 84 82 78 69 68 67 68 65 64
90 90 92 90 94 92 81 78 85 88 97 96 83 92 91 90 89 83 84 78 81 80 85 78 75 73 71 72 76 80 75 76 79 81 81 78 77 73 70 67 69 69 68
90 87 85 84 88 87 89 88 81 82 86 90 99 82 91 92 84 83 80 74 76 73 78 78 81 76 71 73 73 76 79 77 79 80 82 81 80 79 74 68 71 71 71
80 79 75 78 84 79 68 67 85 84 86 86 88 92 91 86 86 86 80 72 71 71 74 79 79 77 71 73 77 81 85 86 80 82 83 87 80 84 79 72 74 74 72
62 62 64 67 63 65 86 92 95 94 91 86 81 81 87 85 84 84 79 70 69 65 68 72 76 75 71 74 82 86 86 90 89 85 90 92 85 82 84 76 77 79 72
47 51 60 57 60 65 70 73 90 96 99 94 82 82 82 81 84 81 82 78 74 72 67 70 74 77 78 81 90 94 93 95 90 88 95 93 86 83 90 82 79 80 76
60 62 70 77 80 82 78 76 74 73 73 75 88 82 66 87 84 83 86 86 81 81 77 76 77 88 89 93 87 94 86 90 91 91 96 95 97 85 95 92 85 84 75
67 80 88 89 76 81 79 75 71 70 69 71 90 60 41 83 77 79 85 83 86 87 88 87 91 94 94 97 92 92 94 94 95 100 100 93 88 89 97 95 88 89 79
90 85 86 84 80 77 73 71 70 70 67 67 91 70 66 89 77 78 86 89 92 94 93 92 92 94 94 99 91 91 96 91 99 100 98 88 78 100 100 96 91 89 82
87 86 82 76 75 72 69 66 68 67 66 67 87 76 74 89 84 83 93 90 95 95 98 96 94 98 100 100 96 100 94 98 100 100 93 86 88 88 100 94 87 92 87
82 78 73 73 74 79 67 69 76 76 76 79 77 81 83 89 95 93 95 97 98 96 98 100 95 99 100 96 100 98 100 100 100 93 95 97 96 88 95 99 96 89 88
79 76 70 74 78 75 81 80 82 75 77 81 86 87 89 88 97 96 100 95 97 96 100 100 100 100 100 100 95 100 100 97 97 100 100 100 95 87 90 100 91 74 92
79 83 72 83 82 84 84 83 83 83 85 86 90 89 87 90 91 98 100 97 100 97 98 100 100 100 100 97 100 100 100 94 100 99 100 100 100 88 92 98 85 83 94
86 91 85 91 86 92 89 89 85 88 86 91 91 92 94 93 96 96 100 100 96 86 100 100 100 100 100 100 100 100 97 100 96 98 100 100 100 100 92 74 93 66 92

GFSGL_925_rhum_147.txt.gz
RH
77 83 77 82 82 81 91 84 84 92 91 94 96 96 96 97 97 98 97 97 98 98 98 98 98 99 100 99 99 99 100 100 94 82 82 93 95 89 92 94 98 98 100
84 82 81 80 81 82 88 85 79 92 87 88 94 97 96 96 96 96 98 98 99 99 99 98 99 99 98 99 100 100 100 99 100 98 100 99 98 89 100 100 100 98 91
84 80 83 81 89 84 86 91 78 90 92 85 87 97 96 92 92 95 96 96 97 97 98 99 98 98 99 100 100 100 100 100 100 100 99 99 99 93 96 98 100 100 100
87 79 87 87 89 91 79 92 78 85 94 84 89 93 98 90 72 92 94 90 93 96 95 96 98 98 98 99 100 100 100 100 97 96 97 99 100 100 100 100 99 98 98
84 84 86 84 85 92 78 78 74 74 78 88 85 87 97 93 85 79 93 99 91 93 96 99 98 98 98 98 98 99 99 97 95 93 92 93 98 99 100 100 100 100 95
72 84 84 84 84 86 86 69 48 60 70 75 84 87 92 99 93 86 90 99 99 93 100 99 98 98 100 98 98 98 97 98 96 93 94 94 98 100 100 100 99 94 90
67 81 84 84 85 87 86 80 82 69 58 71 81 88 89 94 90 92 89 88 95 97 88 98 97 97 91 100 100 100 100 96 100 98 97 100 99 100 100 98 100 94 75
70 75 80 82 85 88 90 92 91 86 83 76 78 83 87 87 89 90 94 86 85 92 90 82 91 90 92 90 95 93 94 98 94 97 96 95 94 88 98 91 87 100 90
80 77 79 79 81 78 79 82 88 94 90 86 82 80 84 85 85 88 77 84 86 85 87 84 84 87 85 92 93 97 93 85 94 94 89 90 84 90 82 96 86 81 90
68 79 80 84 86 86 79 77 80 86 88 88 90 86 86 84 83 86 85 82 83 86 80 83 81 83 84 88 92 96 96 87 82 78 73 67 64 65 67 74 100 85 78
68 73 77 80 82 85 86 82 78 78 81 82 84 78 80 89 87 85 90 94 85 80 77 79 81 82 82 81 87 85 89 82 80 85 86 87 80 69 68 58 73 84 81
78 80 83 84 83 78 77 79 83 80 83 85 88 91 81 80 89 91 91 95 97 84 79 76 76 78 83 83 79 86 90 85 88 84 90 93 90 80 70 71 55 65 51
84 88 89 91 94 96 94 91 82 82 82 97 98 99 80 78 76 80 87 85 84 92 82 84 82 77 79 87 82 76 73 88 87 88 87 90 90 82 77 82 60 58 54
89 90 84 90 90 78 80 83 86 89 88 81 91 87 80 84 84 78 72 73 82 79 69 66 68 71 73 80 90 90 83 80 88 88 84 68 83 89 80 83 78 77 75
83 90 95 98 93 85 69 66 66 83 81 85 76 75 83 86 85 83 75 75 77 72 65 68 68 77 81 83 82 86 92 93 95 89 91 80 80 94 86 80 83 78 80
93 91 90 83 84 80 75 88 88 87 87 92 96 75 87 85 84 81 75 76 76 74 71 75 76 79 93 91 98 90 100 94 82 100 98 92 73 88 94 81 83 83 80
88 86 87 80 76 58 75 85 93 93 94 92 86 88 87 83 83 85 83 82 78 68 74 82 86 88 98 94 97 92 100 94 88 98 95 100 78 86 100 90 88 90 82
74 75 72 72 85 85 85 89 84 90 90 93 91 80 85 89 86 87 90 80 75 79 87 92 97 95 100 100 95 88 92 87 93 100 98 93 76 94 100 100 94 95 84
62 61 63 65 63 70 77 86 87 94 92 92 89 70 77 91 91 92 80 80 86 88 90 94 95 100 100 94 85 80 88 86 97 100 95 82 73 85 100 100 92 90 84
54 64 69 74 80 78 76 76 74 72 86 97 81 54 80 79 81 89 80 79 91 93 90 93 96 98 95 92 81 86 92 94 100 100 90 78 75 84 100 100 96 100 93
68 84 81 81 74 78 78 72 71 69 78 85 74 57 80 82 82 92 89 85 92 95 95 89 87 99 96 91 83 92 89 100 100 94 85 82 83 85 87 99 100 94 87
83 86 80 77 87 84 76 69 68 69 69 80 77 69 88 89 85 91 92 91 94 90 95 96 88 100 100 95 85 87 98 100 99 93 88 92 94 90 84 87 100 82 72
83 83 85 82 76 72 67 69 70 70 71 77 78 84 91 84 94 90 89 93 89 88 89 95 96 100 100 92 88 94 100 100 100 88 97 98 97 96 90 93 98 85 69
78 76 82 79 77 73 67 73 78 79 80 82 85 90 89 88 98 97 95 94 88 87 81 98 100 99 95 90 94 96 100 100 95 90 96 100 100 100 100 97 100 87 59
78 76 71 74 72 78 84 79 81 71 68 78 94 90 92 91 100 98 98 93 90 89 84 100 99 98 98 92 100 100 100 96 94 91 95 99 100 100 100 100 97 91 70
80 79 76 82 78 81 83 85 85 84 87 89 88 87 92 92 96 98 96 94 95 78 96 98 94 100 100 95 100 99 92 94 93 88 96 98 100 100 100 100 100 100 86

GFSGL_925_rhum_153.txt.gz
RH
53 50 57 70 78 68 53 60 58 71 68 62 57 49 53 83 88 90 93 95 95 98 98 100 99 97 98 98 100 100 100 99 95 98 99 99 100 100 100 100 100 99 99
56 58 67 71 77 68 50 56 62 73 78 76 66 59 51 61 81 86 91 95 99 100 100 98 99 98 97 97 98 99 100 99 100 98 100 100 99 100 100 99 100 100 100
62 63 74 74 73 69 48 49 61 77 82 90 84 74 61 58 70 80 84 92 97 99 100 98 98 98 98 97 97 98 98 100 100 99 100 99 100 99 100 99 100 99 100
60 62 80 79 70 62 45 47 62 79 85 92 94 90 77 76 63 79 79 86 94 98 97 100 100 98 98 97 97 97 97 98 98 97 97 99 100 97 97 99 99 90 94
58 72 89 86 64 52 46 48 66 76 85 90 89 94 89 94 94 73 84 87 90 96 100 100 97 97 98 96 98 97 97 97 94 92 93 95 96 96 100 85 99 98 89
70 82 93 92 48 44 40 48 66 79 84 87 88 86 88 93 94 97 75 86 87 94 100 97 96 98 100 100 97 93 96 97 96 94 94 92 97 97 97 87 91 97 90
75 85 93 86 55 61 46 52 72 80 82 84 83 84 88 90 92 98 90 84 85 89 90 94 93 85 89 96 100 100 100 99 100 100 98 100 100 100 100 99 78 86 89
74 83 91 86 79 84 75 63 75 80 86 91 91 88 88 89 90 92 82 91 93 88 87 91 89 88 83 70 73 83 94 99 95 96 98 100 96 78 93 93 93 75 54
72 78 87 87 86 94 92 80 72 78 84 88 92 95 92 90 90 92 76 80 88 87 88 87 91 90 87 79 56 68 69 82 100 100 98 100 100 92 51 42 73 86 87
65 70 80 85 86 94 98 92 83 77 77 84 87 90 96 95 89 90 75 77 81 93 89 85 85 88 88 86 64 67 79 79 57 52 46 46 58 72 68 63 72 84 81
55 63 75 80 80 81 94 99 92 80 70 65 76 81 88 93 91 91 94 78 78 84 91 93 87 87 89 89 88 76 82 61 56 54 58 54 52 59 69 71 74 74 85
64 66 72 74 76 80 85 97 97 97 94 86 69 75 86 89 95 94 94 96 89 85 89 89 91 92 89 94 93 91 58 49 59 73 78 80 76 67 58 64 59 61 66
72 75 79 83 87 89 91 95 100 95 96 96 71 73 76 76 91 98 96 84 86 92 92 92 97 98 92 100 99 99 68 60 63 78 90 94 84 70 49 44 53 54 51
73 80 86 86 89 90 92 93 96 97 98 89 64 78 78 75 78 78 69 65 67 67 62 63 67 70 72 73 76 88 93 90 76 80 85 86 87 85 75 69 74 76 79
74 84 91 93 95 98 93 89 94 93 84 75 55 78 84 83 84 90 83 68 65 66 61 57 58 61 68 73 79 84 88 93 96 76 74 86 95 96 91 79 82 87 88
88 100 100 98 94 92 93 95 94 82 67 51 59 74 84 89 90 86 92 93 95 60 59 77 78 77 82 83 82 84 88 97 81 74 66 79 93 100 100 95 89 93 88
90 100 100 94 81 83 87 93 98 97 96 90 88 89 85 98 96 90 91 95 99 61 75 92 92 80 78 84 85 90 96 96 79 70 67 71 87 89 100 100 92 86 84
86 94 100 100 88 70 78 88 91 95 93 91 90 94 98 90 92 94 97 81 76 80 79 88 94 86 77 76 83 90 95 89 78 69 66 71 83 95 94 100 96 89 86
88 98 100 95 92 74 72 87 91 92 91 92 87 88 97 97 98 96 64 60 70 81 83 85 87 79 74 74 81 86 94 89 79 70 73 78 80 89 93 96 93 84 90
85 91 96 94 89 82 74 86 92 93 92 90 84 65 94 94 84 75 72 71 72 76 76 77 80 80 73 68 69 78 86 82 77 68 73 82 84 86 90 94 98 99 95
78 84 89 95 92 86 76 87 92 94 93 92 87 69 93 95 82 80 80 78 74 76 79 74 80 85 76 71 68 78 87 88 84 81 76 82 89 89 93 94 99 98 93
72 81 84 84 89 98 99 97 98 97 95 94 91 69 84 84 81 83 83 82 81 79 78 74 75 82 80 76 74 87 92 89 88 86 82 76 88 97 99 99 97 94 98
71 78 86 84 79 78 81 84 84 86 90 91 76 74 86 84 84 86 85 85 84 82 76 72 78 82 83 81 82 89 92 92 90 88 88 78 85 95 98 99 100 99 98
73 79 82 80 82 82 88 90 76 77 81 83 72 75 81 86 87 88 89 90 88 83 76 74 79 83 84 84 87 94 93 89 92 92 87 82 90 98 100 99 100 100 100
72 77 86 86 85 85 80 78 74 71 73 76 75 79 84 90 94 92 92 94 92 86 79 75 79 83 89 87 88 90 93 95 93 87 84 88 99 100 100 100 100 100 100
94 94 89 84 85 84 80 74 72 73 75 78 92 86 89 94 91 94 94 95 93 89 85 77 77 83 90 86 90 96 96 94 87 91 96 100 99 99 100 100 100 100 99

GFSGL_925_rhum_156.txt.gz
RH
46 42 49 58 64 48 45 50 64 70 62 45 39 41 50 66 78 82 84 84 89 99 100 98 99 98 99 98 99 100 100 100 93 100 100 100 100 99 98 98 98 97 100
45 48 56 65 66 53 45 48 64 76 76 64 51 46 49 53 65 72 83 85 94 100 100 100 99 99 98 97 97 98 99 99 100 97 100 100 98 100 100 100 100 100 100
50 56 66 70 70 49 37 47 70 81 84 84 66 66 60 54 61 70 80 88 89 95 100 100 100 99 100 97 97 97 98 98 98 99 99 100 100 100 100 100 100 100 100
55 62 72 71 63 39 35 51 70 83 87 92 85 79 87 70 59 60 69 77 85 97 96 95 98 100 100 98 97 96 97 98 98 98 98 99 98 97 99 100 98 96 100
58 74 80 68 55 41 42 58 71 80 85 85 74 83 94 93 89 63 59 67 70 81 99 97 95 96 99 98 100 96 96 97 97 96 96 96 96 96 98 97 98 91 82
67 78 84 75 54 39 46 61 72 83 87 78 76 85 93 95 96 95 63 69 69 71 75 85 90 95 100 100 100 98 98 97 96 96 95 94 96 96 96 97 97 98 89
73 82 90 71 38 39 50 64 76 80 80 80 83 86 90 93 94 100 82 81 83 82 76 77 87 80 77 91 98 99 100 100 100 100 99 100 100 100 98 69 77 81 91
74 86 94 53 55 49 55 70 82 85 85 86 89 90 90 90 93 97 83 86 90 93 87 79 80 86 84 56 69 81 93 100 97 96 100 100 96 73 89 98 91 68 68
77 83 92 68 77 70 63 74 81 88 92 93 94 91 93 93 91 85 79 78 81 85 90 91 88 86 86 54 48 59 61 69 98 100 100 100 100 70 38 33 58 77 78
65 70 84 83 84 84 77 72 75 81 86 89 92 95 97 95 92 89 70 81 86 92 89 89 88 89 89 83 54 56 64 67 46 45 54 62 60 64 55 47 58 80 87
52 63 79 86 86 89 90 84 80 72 69 72 81 89 90 91 95 95 86 73 80 87 93 94 90 90 92 92 90 76 80 50 44 48 49 50 59 64 63 65 60 59 74
47 58 73 80 86 93 98 95 87 81 79 66 62 78 84 85 98 95 98 96 82 79 87 92 95 97 93 97 95 90 49 45 51 55 64 69 64 63 67 64 58 56 62
56 61 67 77 83 83 94 100 98 97 93 73 67 75 79 94 97 98 99 100 87 88 92 97 99 93 80 93 100 69 50 50 59 71 83 82 70 56 46 49 52 42 44
66 67 71 80 86 89 92 98 100 98 97 93 62 72 78 77 78 79 79 73 67 59 56 57 59 59 60 63 61 64 66 62 64 75 80 76 65 58 54 62 72 62 61
72 76 84 88 90 92 94 96 98 95 89 89 58 64 77 81 85 81 69 65 64 61 54 52 51 53 58 63 71 72 66 61 57 58 69 77 82 96 90 76 86 85 79
82 92 96 94 96 98 99 98 98 98 96 81 52 72 82 90 99 99 96 98 92 61 52 58 63 63 67 70 76 81 77 67 59 54 60 79 86 98 100 93 82 88 79
80 95 100 99 100 100 100 96 97 97 88 79 69 86 96 98 95 93 94 99 99 61 60 71 68 65 68 72 80 83 81 72 60 55 58 75 86 86 97 99 95 91 83
79 90 95 100 97 96 96 95 91 95 94 89 92 94 92 97 99 96 99 98 78 72 74 80 76 66 65 69 76 86 84 72 64 62 65 71 84 93 93 96 99 86 92
85 94 94 100 91 83 84 89 87 87 87 93 95 94 97 94 98 98 92 66 67 75 77 74 71 66 64 63 73 83 86 73 65 65 77 78 76 87 92 94 90 81 88
86 94 93 97 94 81 77 84 90 90 89 92 87 88 99 93 82 70 65 63 64 66 70 69 68 66 64 62 68 81 81 74 70 67 68 79 86 84 90 92 96 95 100
87 96 92 97 97 91 79 88 92 93 90 89 81 75 80 94 85 78 72 72 69 68 67 64 68 70 66 62 62 72 80 82 80 79 75 70 80 87 92 95 96 96 99
85 93 100 100 100 97 91 80 90 94 93 92 90 84 76 97 94 81 78 76 73 70 68 66 66 69 68 64 66 75 84 84 80 76 73 70 73 89 98 98 97 100 100
81 88 97 100 100 98 97 96 95 97 95 95 93 94 82 90 88 81 80 79 76 74 70 63 67 70 69 65 66 74 82 84 82 81 79 74 70 86 95 99 99 98 99
84 82 86 91 94 98 100 99 97 95 95 95 95 87 77 79 82 84 86 83 82 79 74 65 67 71 72 71 72 81 84 83 86 86 81 76 77 90 98 100 100 100 100
74 79 84 87 90 88 92 91 95 94 88 88 89 78 77 81 85 89 87 88 86 84 79 71 71 76 77 76 74 81 87 93 92 85 81 85 93 99 100 100 100 100 99
75 79 82 85 92 95 91 92 90 89 86 82 80 75 77 85 89 95 92 92 90 88 84 78 75 75 76 80 81 89 92 92 85 86 92 92 93 94 99 100 100 100 99

GFSGL_925_rhum_159.txt.gz
RH
62 42 56 46 38 38 40 44 52 60 59 58 59 68 74 76 90 93 92 96 94 98 100 99 97 99 100 100 100 99 99 100 96 100 98 100 100 98 98 98 100 99 100
46 58 51 43 45 41 39 50 60 68 83 72 64 75 79 76 88 95 96 97 96 95 98 99 98 96 99 100 100 100 98 99 100 98 100 99 99 99 99 98 100 100 98
51 58 55 53 51 40 39 56 69 81 97 90 82 90 92 80 80 92 95 95 96 96 95 97 100 97 97 100 100 99 99 99 99 99 99 98 100 99 98 99 100 100 100
49 51 53 56 51 35 41 65 92 95 96 93 90 96 97 90 79 87 88 92 94 95 96 92 97 98 99 100 99 99 99 99 99 98 98 98 98 97 98 100 98 99 100
50 55 57 59 49 37 56 87 89 93 94 82 84 89 84 85 91 78 87 90 87 90 90 82 92 95 98 99 99 100 99 98 97 96 96 97 97 97 97 97 98 99 100
54 61 64 61 50 46 76 89 95 91 67 64 94 96 98 89 96 87 79 90 84 81 88 83 75 85 92 100 100 97 99 97 96 94 94 94 97 98 97 99 98 98 91
61 69 71 67 47 43 59 69 74 74 71 72 78 84 98 96 96 92 72 98 97 96 94 89 83 80 74 76 94 100 98 100 100 88 91 98 97 100 95 62 83 93 92
80 82 82 55 39 45 57 69 74 76 76 84 84 90 100 94 96 84 75 97 100 100 96 97 94 95 83 72 75 88 100 100 100 100 100 100 99 97 100 83 68 65 68
76 90 84 42 40 53 65 74 79 82 84 84 89 91 98 95 94 76 85 97 98 100 100 96 96 92 86 43 38 49 76 97 100 100 98 96 89 53 54 68 74 56 57
72 80 75 69 64 61 64 72 80 82 87 98 93 93 94 98 92 75 88 90 97 93 97 94 89 91 91 74 74 77 81 89 84 65 65 66 61 60 40 78 79 68 72
75 82 84 79 77 79 79 92 94 95 97 98 94 91 89 96 98 95 68 93 94 93 94 94 93 92 93 94 93 84 72 83 89 93 90 90 94 93 92 85 93 86 75
59 79 87 87 94 92 95 97 90 86 83 81 82 89 91 97 99 99 97 96 89 92 96 98 98 99 96 98 95 78 41 82 94 89 86 87 87 91 94 94 92 94 95
61 71 83 96 99 100 100 100 99 98 94 80 72 82 91 100 99 97 98 100 79 96 98 99 93 77 64 98 86 53 75 92 89 85 87 90 90 89 87 84 87 83 81
65 72 82 92 100 100 100 100 100 100 100 94 80 81 92 100 100 100 100 99 68 55 53 52 55 50 50 66 90 93 93 89 89 89 89 89 82 74 71 69 66 64 65
76 80 91 93 98 100 99 100 100 100 98 96 90 80 87 89 93 76 68 66 61 54 60 68 77 77 76 79 83 89 82 77 78 83 88 86 83 76 69 65 64 61 60
78 83 85 86 96 96 100 100 99 98 96 95 83 64 77 88 94 96 96 97 73 56 64 82 85 88 82 79 82 81 83 80 79 77 81 84 81 77 73 69 66 65 60
68 76 87 90 92 98 100 97 96 100 98 88 57 76 81 98 99 98 98 100 90 62 81 82 84 86 82 78 81 81 82 87 88 82 83 89 92 84 79 74 73 69 63
77 83 89 90 92 97 98 99 96 94 93 89 90 90 98 98 98 95 100 98 88 79 81 84 86 84 76 74 79 82 85 88 86 85 91 95 99 90 84 79 75 78 66
86 91 96 99 100 100 100 100 99 97 92 90 99 98 93 100 100 100 100 90 83 81 80 79 83 79 76 77 95 99 99 96 92 98 96 97 100 92 89 87 86 89 79
95 99 98 100 100 100 100 100 100 94 86 87 87 91 99 99 99 77 66 77 91 84 83 79 79 81 85 87 95 97 100 99 97 93 100 100 100 100 95 95 94 87 76
96 100 100 99 99 100 97 95 89 86 86 88 89 100 100 92 93 92 89 85 90 85 91 84 86 76 67 85 93 100 98 100 100 100 99 97 99 100 100 99 96 92 85
99 100 100 97 98 99 93 88 86 87 90 91 94 85 87 100 99 97 95 87 82 80 68 79 90 95 92 88 92 100 100 100 100 100 100 93 99 100 100 100 100 98 92
97 97 95 96 97 100 100 94 92 93 97 99 100 98 95 100 100 100 95 78 74 74 84 89 96 92 66 60 66 93 100 100 93 74 86 94 100 100 100 100 100 99 96
94 95 93 97 100 100 100 100 100 97 99 100 100 100 100 100 100 100 88 80 90 90 72 64 64 68 65 64 65 72 77 73 76 76 68 74 100 100 100 100 100 100 100
99 99 97 98 100 100 100 100 100 100 100 100 100 100 100 100 99 94 84 88 89 84 76 69 65 66 67 67 66 71 77 87 86 80 74 82 96 91 100 100 100 100 100
98 98 98 100 100 100 100 100 100 100 100 100 100 100 99 94 91 88 90 94 94 90 81 76 71 68 68 70 72 75 84 88 84 78 81 98 100 100 100 100 100 100 99

GFSGL_925_rhum_162.txt.gz
RH
58 54 53 60 66 65 65 70 79 79 68 65 65 67 70 76 81 79 74 78 76 74 79 94 95 90 94 97 100 99 100 98 99 100 99 100 99 100 99 98 99 100 98
58 57 67 78 70 68 71 74 80 81 75 72 74 71 70 75 80 81 81 81 82 80 77 85 95 95 94 98 99 100 100 98 99 98 98 98 99 99 99 100 100 100 100
62 66 78 82 76 79 76 77 83 86 82 72 80 86 81 77 78 76 81 82 82 84 84 85 87 96 98 98 100 100 99 99 99 99 99 98 98 98 98 97 98 100 99
73 86 92 94 73 68 79 78 75 74 72 70 76 86 87 80 76 74 73 75 84 85 85 83 91 90 98 99 99 100 98 98 99 97 95 97 99 97 98 99 98 96 98
68 83 89 91 57 75 79 70 69 72 69 61 64 66 66 70 84 81 76 72 73 77 73 64 80 87 94 93 97 100 96 92 95 94 93 94 95 96 98 98 99 98 96
63 80 90 73 69 84 73 71 76 77 92 91 79 88 92 79 96 92 80 82 72 70 78 70 59 70 72 94 92 94 97 85 88 90 93 93 96 96 98 98 98 98 93
80 84 89 88 83 92 83 82 99 98 95 97 98 97 99 97 96 98 98 96 93 93 90 82 72 70 56 55 78 86 92 95 94 75 83 91 93 99 98 91 94 94 93
69 86 96 77 77 93 97 97 98 97 96 96 98 99 99 98 92 90 98 98 97 96 95 94 91 89 85 72 75 88 93 95 97 95 96 96 98 100 91 73 62 70 68
58 66 78 61 65 94 95 96 98 98 100 99 100 99 96 96 92 86 93 92 94 94 92 92 94 92 91 86 82 84 88 93 96 94 94 95 93 96 93 68 69 50 60
53 57 61 58 60 83 91 95 98 97 97 100 100 100 98 98 89 67 91 78 88 86 90 92 91 92 92 92 87 81 84 91 90 90 91 93 94 94 95 96 83 66 71
58 59 55 49 54 69 83 82 85 88 89 93 98 100 100 100 97 82 85 90 83 80 82 86 90 92 93 91 92 93 95 94 90 88 85 86 88 89 91 93 95 88 78
68 70 66 61 65 69 83 83 77 75 82 79 73 75 81 94 97 97 95 90 86 83 86 89 94 94 95 95 92 94 94 89 85 82 81 82 83 85 87 90 95 93 94
86 90 88 86 86 88 94 93 84 82 74 70 64 69 75 90 89 98 98 87 85 86 90 92 84 96 96 92 94 93 89 84 81 79 80 80 78 76 71 70 76 74 78
93 95 96 95 97 94 93 92 83 86 84 78 72 73 77 83 87 91 97 97 63 91 73 88 67 78 74 87 84 81 82 79 79 78 76 72 67 61 58 56 55 57 58
85 91 83 85 90 98 91 91 87 90 85 82 83 79 78 80 87 92 95 94 93 85 90 83 75 68 68 69 72 73 70 66 68 72 72 69 65 61 56 55 54 53 53
67 70 73 72 79 80 86 95 94 97 93 91 90 86 85 86 85 78 79 74 55 50 74 72 77 78 69 65 68 67 69 70 69 66 68 66 64 63 60 59 59 57 50
52 56 65 67 70 69 72 81 90 100 99 97 91 79 91 96 96 93 96 99 63 58 73 72 77 79 68 60 62 62 66 74 74 70 72 76 76 69 64 61 63 59 54
51 55 63 64 67 69 71 73 76 88 91 96 90 84 92 94 97 97 95 91 72 67 66 70 73 72 58 56 58 61 70 76 76 73 80 84 86 72 70 64 63 68 58
60 66 73 77 80 80 79 78 80 82 82 84 86 87 94 99 99 97 97 77 69 64 59 56 65 61 56 56 80 85 89 88 88 89 85 82 90 76 72 69 70 76 70
78 82 90 91 91 87 85 85 86 85 83 80 75 77 86 95 93 93 92 85 79 67 61 58 57 61 68 75 89 92 89 89 83 78 88 91 92 84 77 76 74 70 61
85 94 90 91 90 87 83 83 82 81 75 69 70 82 83 79 78 78 78 86 80 71 77 66 72 83 86 86 75 86 79 86 87 86 86 85 95 87 80 77 76 72 66
86 89 88 86 86 80 75 74 75 74 67 68 77 96 90 83 80 80 83 88 85 81 84 85 78 78 79 76 82 94 92 93 94 93 92 94 89 84 85 81 81 79 74
85 88 85 85 78 78 80 74 78 76 70 79 84 88 93 88 88 87 89 99 97 98 91 92 95 91 97 98 99 96 92 92 98 100 100 99 90 89 91 87 82 81 79
89 91 81 75 80 77 81 82 82 80 78 89 92 91 92 91 93 95 98 100 100 100 100 100 98 96 100 100 100 100 100 100 100 100 75 100 97 93 94 89 84 86 86
89 88 80 79 80 81 84 87 88 88 88 92 94 94 95 95 96 97 100 100 100 100 100 100 100 100 96 92 100 100 98 74 80 73 100 100 100 100 100 97 96 91 88
93 87 84 82 83 84 91 90 92 93 94 96 96 97 96 96 96 99 100 100 100 100 100 100 100 100 100 100 97 100 66 70 86 66 99 100 100 100 100 99 96 94 88

GFSGL_925_rhum_165.txt.gz
RH
54 51 51 51 55 57 59 62 70 68 62 60 61 63 64 69 71 70 66 71 70 70 71 77 81 93 96 98 96 98 98 100 98 99 98 99 98 99 99 99 98 98 98
54 52 58 66 65 63 65 66 70 67 64 65 66 63 64 68 70 72 71 73 74 76 74 78 78 84 96 98 98 99 98 99 99 98 98 98 98 99 98 96 99 97 98
56 63 71 74 68 69 69 69 74 74 69 67 73 75 71 69 68 68 72 75 76 78 78 81 83 83 91 97 96 99 99 99 97 99 98 98 97 98 97 96 95 95 99
64 76 80 75 84 78 73 71 71 69 66 66 74 80 79 72 68 65 66 69 77 80 75 77 87 86 91 93 95 98 97 92 96 97 96 97 99 99 99 98 98 94 95
74 82 88 91 85 76 74 65 62 63 61 56 60 62 61 65 82 75 69 66 68 70 65 57 72 83 85 88 91 97 97 88 84 83 87 88 92 96 97 98 97 97 96
85 92 85 77 73 74 67 61 67 68 76 71 68 80 81 70 81 80 74 80 70 69 71 65 58 68 63 78 87 91 94 85 81 77 83 87 95 97 99 99 99 96 90
93 88 77 66 66 79 68 67 80 83 91 88 93 97 100 98 97 98 98 96 95 95 90 81 74 74 64 60 75 82 90 92 91 77 85 91 92 100 91 84 95 90 89
78 90 84 67 74 77 80 82 92 98 95 95 97 96 100 96 82 97 98 98 96 96 96 96 93 95 87 77 81 88 93 94 94 93 95 97 99 100 96 71 62 71 70
65 72 84 76 89 92 96 96 94 95 95 91 94 95 95 97 67 91 95 94 93 95 95 95 96 95 93 87 89 90 91 92 95 92 92 93 93 96 92 81 73 63 72
59 62 71 71 74 90 91 92 89 96 94 99 100 99 96 98 69 74 94 79 88 90 95 95 92 93 91 94 93 89 88 91 90 90 92 93 95 92 94 93 94 74 81
58 59 62 58 58 72 81 79 84 86 88 92 100 100 98 98 92 59 87 93 81 79 84 89 94 94 92 92 94 96 95 93 89 88 87 88 90 92 93 92 94 92 84
58 60 58 53 57 62 73 74 72 71 77 77 74 80 85 94 91 90 73 88 83 82 86 91 96 93 91 90 91 92 89 89 85 83 82 84 86 86 87 92 97 96 96
65 68 64 65 66 75 86 82 71 71 72 70 66 68 71 92 97 97 83 59 82 84 96 74 40 78 91 90 87 89 88 84 80 78 78 78 75 72 66 67 74 81 78
82 83 85 86 91 91 90 87 76 77 75 72 67 70 74 83 96 94 97 92 58 75 68 90 71 82 79 84 82 81 82 80 78 75 72 68 63 58 56 55 55 55 57
90 91 81 82 85 91 81 79 77 79 81 77 76 76 78 80 90 96 93 91 92 93 92 89 80 69 68 70 72 71 70 66 68 71 69 66 62 59 56 55 54 53 51
78 73 74 72 74 78 76 83 88 89 94 90 93 88 91 89 93 84 86 88 86 45 80 73 77 77 69 65 67 67 68 70 67 66 68 65 63 61 59 58 58 56 49
63 61 66 66 68 70 70 80 86 100 96 88 89 85 92 100 87 68 93 83 47 51 77 71 77 78 67 57 59 59 66 71 70 70 71 75 74 66 62 58 61 60 53
52 54 60 61 63 64 67 78 80 87 89 98 96 91 92 97 93 91 95 88 63 72 66 69 73 72 55 52 53 58 68 74 76 71 79 82 83 69 67 61 61 66 61
50 54 63 66 70 71 71 74 84 84 80 92 95 89 88 91 94 94 94 82 65 60 55 51 60 55 50 50 76 82 87 87 86 85 82 79 86 74 68 66 67 67 63
59 64 76 82 82 81 80 81 93 80 82 84 83 80 90 97 96 94 92 87 76 64 58 52 53 55 60 71 85 88 85 86 78 73 83 86 88 81 73 71 70 66 58
76 82 82 86 86 83 84 81 83 85 80 79 77 89 89 85 88 84 81 85 77 67 71 60 64 78 83 83 70 80 71 78 81 80 81 81 90 84 76 72 71 67 61
88 86 85 89 87 86 87 83 81 75 71 73 72 94 88 79 78 79 74 78 79 74 76 79 75 78 76 70 74 86 85 87 87 85 86 88 84 79 78 75 74 74 70
88 86 79 84 84 94 96 87 84 78 73 67 81 90 88 81 95 81 82 95 89 86 84 86 90 86 91 94 91 88 86 84 90 99 97 93 84 84 85 81 77 75 76
90 88 83 93 97 92 94 92 85 76 72 78 94 92 90 92 94 97 97 98 97 99 100 97 97 94 97 100 100 97 90 100 100 100 70 100 91 85 89 83 79 80 80
93 94 94 91 87 87 86 85 85 80 83 88 91 95 95 94 98 98 100 99 98 100 100 100 100 99 100 96 100 98 98 85 88 79 100 100 100 98 97 92 89 86 83
91 86 86 89 90 90 89 89 89 89 87 94 96 95 95 94 97 98 100 98 98 99 100 100 100 100 100 100 100 100 81 59 63 54 82 100 100 95 94 94 91 90 84

GFSGL_925_rhum_168.txt.gz
RH
54 51 48 48 46 47 49 57 61 64 62 62 64 65 69 74 73 70 67 74 75 76 78 81 82 85 93 96 95 95 98 99 98 99 98 99 98 96 97 97 96 88 97
55 56 54 50 50 59 61 63 68 65 63 65 64 64 67 72 73 74 74 75 78 80 81 84 85 88 91 96 98 99 99 99 99 99 96 98 98 99 97 96 96 98 91
56 65 54 54 64 63 63 69 70 68 67 71 70 70 70 70 69 71 75 79 79 79 81 86 84 88 90 93 94 93 99 98 99 94 98 97 97 98 98 96 96 96 91
64 68 68 76 68 63 67 73 75 72 69 75 77 76 73 69 67 66 69 75 77 72 66 72 82 80 89 88 94 93 95 93 92 95 96 96 97 98 97 97 96 96 96
75 79 79 82 66 70 72 71 70 67 65 69 73 69 66 59 78 72 69 69 72 69 60 60 73 86 84 88 91 87 85 88 86 90 95 92 97 96 99 98 99 97 95
77 85 88 74 72 75 69 65 66 64 60 60 64 66 62 75 77 77 80 77 73 75 73 66 63 67 79 85 89 92 90 86 87 88 94 94 97 98 99 93 91 97 97
96 98 93 72 75 69 65 67 70 73 70 76 86 91 87 70 82 91 96 90 89 90 91 88 86 77 71 75 86 90 91 94 91 90 100 100 100 100 98 80 71 74 95
100 100 84 75 72 69 68 72 76 84 81 83 88 94 87 73 97 97 98 89 88 91 94 94 76 76 84 81 91 95 94 92 92 92 94 95 96 94 88 90 80 75 60
90 95 83 67 74 79 76 77 87 83 93 94 91 92 92 59 85 93 92 87 90 84 70 83 75 81 96 91 83 82 90 94 96 92 94 97 94 94 79 67 80 91 88
75 83 86 83 81 84 82 86 87 88 95 89 95 90 94 77 65 91 98 89 96 98 99 87 92 90 92 98 92 94 97 89 93 87 88 92 92 70 44 51 81 92 84
71 74 77 76 82 76 82 92 92 95 90 95 96 96 91 88 54 80 92 86 85 97 97 92 80 93 90 93 81 84 91 93 89 86 86 81 84 92 75 71 65 41 74
66 76 84 79 82 82 87 90 89 88 93 93 95 94 91 93 77 56 83 93 86 88 94 90 70 89 80 90 87 91 91 89 84 84 84 81 72 66 74 74 78 71 64
76 83 69 68 72 80 85 84 80 81 84 85 85 89 93 99 94 63 53 75 78 96 92 87 44 76 91 87 85 87 86 85 81 79 77 73 65 59 58 61 68 78 70
82 76 77 72 80 84 90 84 78 80 81 79 77 78 99 100 94 87 63 70 84 73 33 44 70 76 77 80 85 80 75 74 78 76 72 66 61 58 56 57 56 55 55
80 81 80 88 94 96 91 87 82 81 81 80 75 76 96 98 97 85 82 84 81 97 92 80 89 86 80 76 76 74 72 69 71 72 70 67 64 63 60 59 59 54 50
83 81 83 91 92 91 88 86 85 78 75 75 78 80 86 88 94 100 94 95 95 84 83 83 80 79 72 70 71 72 72 75 70 70 72 73 70 66 64 61 62 61 50
77 79 82 85 83 83 84 87 99 97 80 90 87 87 88 86 97 98 88 82 81 51 83 76 81 81 71 60 63 64 74 69 72 76 78 80 80 72 67 63 67 67 64
74 74 76 79 77 77 78 82 91 98 98 98 97 98 95 83 93 95 84 71 52 41 82 75 80 78 61 56 57 63 73 81 81 78 83 86 80 75 69 66 70 65 64
66 69 73 75 75 76 80 84 87 91 93 99 97 98 98 99 94 94 93 73 61 60 64 63 68 61 49 52 72 82 90 81 82 89 90 87 82 85 74 71 73 71 63
60 65 71 76 76 78 90 88 91 90 88 100 98 94 98 92 97 95 89 85 90 66 59 53 62 59 56 69 90 90 91 89 84 76 83 89 82 87 78 75 75 70 65
67 69 77 87 84 84 86 91 96 87 91 97 91 88 89 96 98 89 86 76 92 73 67 57 58 68 80 79 79 85 67 79 79 83 87 90 82 86 80 78 76 75 71
82 85 90 90 85 85 86 88 96 91 90 91 85 94 84 93 92 94 85 92 80 76 78 71 76 85 83 79 74 90 87 89 93 86 93 81 86 86 83 82 81 80 77
88 86 92 92 88 92 92 95 96 90 86 83 97 99 91 88 91 91 95 91 85 79 81 84 83 82 81 84 84 93 90 84 90 88 88 94 89 91 81 92 84 81 90
86 86 91 96 94 97 98 98 97 90 90 97 97 98 96 87 89 95 94 94 89 88 86 80 95 94 92 87 89 88 92 97 91 74 58 88 96 97 94 92 86 96 85
95 90 93 98 98 98 97 97 98 96 90 87 98 97 90 87 85 97 98 95 91 87 91 92 99 97 96 93 100 100 91 83 75 75 68 78 97 75 93 80 99 80 93
90 94 97 97 96 96 96 96 96 89 88 94 97 97 88 82 88 97 97 92 90 93 96 90 93 97 92 84 97 92 88 87 66 45 60 98 98 100 100 99 100 91 92

GFSGL_925_rhum_174.txt.gz
RH
64 54 51 54 47 42 48 50 47 48 46 50 50 60 53 59 62 54 63 65 56 56 52 52 58 89 91 90 91 91 100 97 92 99 93 92 97 97 90 84 88 89 88
60 54 50 42 44 47 47 47 48 45 50 46 59 51 54 58 57 54 62 60 51 43 37 40 50 85 88 88 87 89 98 100 98 98 95 98 94 98 100 92 88 84 86
55 51 53 51 46 45 45 46 46 50 50 50 58 48 52 58 61 58 53 56 52 45 40 46 56 72 85 86 89 91 94 96 95 87 84 84 85 87 87 99 88 91 81
57 56 58 54 47 46 47 48 49 51 50 64 53 50 55 59 60 58 54 54 56 52 54 66 76 68 71 72 78 83 86 84 87 82 82 84 90 83 78 88 98 91 87
62 62 61 56 52 51 54 52 63 60 60 61 58 60 61 62 69 68 64 60 57 56 66 83 90 92 91 79 53 58 64 72 69 74 87 91 96 98 99 86 86 99 92
67 70 68 66 62 65 61 88 82 69 61 66 61 59 62 62 70 72 71 68 62 58 69 82 90 95 89 95 90 66 42 42 62 88 96 98 96 96 95 94 84 87 94
77 75 72 66 72 83 96 89 80 60 71 67 62 60 66 70 70 68 72 72 66 66 57 66 75 85 72 61 92 94 97 83 73 70 94 91 87 83 91 94 79 90 98
88 87 76 83 91 98 98 94 75 77 80 77 66 55 55 84 86 75 72 74 77 76 66 48 63 75 74 62 68 85 96 100 99 94 85 93 81 45 78 92 74 68 79
91 95 87 83 98 98 100 85 96 90 81 79 64 63 56 94 100 75 71 73 70 69 48 49 64 67 83 67 71 86 92 93 97 98 94 67 67 39 35 76 91 100 74
94 95 95 90 97 100 96 100 98 80 77 73 79 69 52 79 99 83 70 61 65 68 66 77 78 91 97 76 81 88 93 90 77 60 71 69 71 69 58 41 30 61 73
94 95 98 98 98 99 100 98 92 82 82 87 78 61 65 87 99 100 88 78 71 76 72 85 94 96 98 80 87 90 95 92 77 60 62 63 64 71 74 59 53 51 68
93 94 97 98 99 98 96 98 89 85 90 94 89 87 63 88 96 100 97 99 90 85 79 56 86 93 95 87 91 97 93 92 78 71 62 59 58 59 74 71 57 54 61
97 96 96 96 98 98 97 100 99 96 94 100 100 100 96 72 82 93 97 98 97 96 87 56 82 88 90 91 94 89 89 81 74 70 66 62 57 59 59 76 71 55 49
100 99 100 100 99 99 98 98 98 98 99 97 96 96 100 92 65 86 97 99 98 100 90 80 78 81 81 88 78 80 81 80 76 73 65 65 61 59 60 59 67 68 50
100 98 98 99 100 100 100 98 97 96 87 93 95 99 99 100 85 64 72 89 91 93 89 53 78 84 87 85 78 73 73 74 74 71 68 64 64 63 61 60 51 56 50
98 98 98 98 98 98 98 98 97 86 83 74 66 80 94 72 80 80 54 68 89 87 65 50 74 82 84 82 77 74 70 70 71 72 72 71 68 67 64 62 61 52 56
98 99 98 99 99 98 98 97 99 96 81 78 80 78 74 77 79 83 92 83 81 66 45 67 85 91 87 89 81 76 72 69 74 75 70 77 73 69 67 63 53 59 62
96 96 97 96 95 97 96 96 99 99 99 100 93 88 87 90 90 100 98 94 95 100 85 78 88 89 76 78 82 75 66 64 76 77 74 75 78 70 70 71 65 61 60
89 94 97 97 98 98 100 100 99 95 98 100 100 99 96 98 99 99 99 92 90 94 82 70 86 86 80 65 65 66 65 71 76 80 76 73 83 74 72 74 71 68 60
90 92 93 94 97 100 100 100 98 94 99 100 100 97 100 100 99 98 96 93 94 90 80 60 87 90 80 62 62 66 78 83 80 88 87 82 78 83 78 78 75 72 71
88 90 89 90 96 100 100 100 97 96 100 100 94 93 92 90 92 91 89 95 81 52 43 62 80 83 70 56 58 66 70 70 72 82 79 81 77 86 79 81 78 78 77
86 94 93 97 96 100 100 99 97 94 97 97 96 93 90 90 89 89 86 75 66 93 75 64 62 61 60 58 61 69 75 89 81 79 79 84 78 84 83 81 87 83 81
82 92 95 96 96 92 95 99 96 94 95 95 92 93 99 98 91 87 81 70 68 90 71 60 58 59 61 68 74 75 79 80 80 82 77 80 74 85 94 87 88 87 82
79 86 94 98 98 100 100 100 99 96 96 96 94 95 93 94 89 83 80 74 72 88 76 71 67 67 72 74 72 74 86 90 86 84 89 88 83 84 83 90 92 92 89
80 86 91 95 100 99 98 98 97 97 97 97 96 96 90 89 87 86 85 79 80 91 81 80 79 80 80 78 78 80 85 93 92 91 89 74 79 88 92 87 90 85 89
86 88 90 93 96 98 97 97 97 97 97 96 96 96 95 95 93 87 90 95 97 95 91 87 86 85 88 89 87 90 80 81 81 72 55 51 64 74 82 85 93 86 89

GFSGL_925_rhum_180.txt.gz
RH
90 92 94 96 98 97 92 84 78 52 50 54 50 50 50 62 60 60 60 56 47 44 42 56 74 80 82 86 87 86 87 85 80 97 95 100 86 74 94 78 61 53 76
92 98 100 100 97 94 90 79 69 57 58 54 55 53 53 62 64 62 60 58 47 41 37 54 72 81 84 86 86 85 87 87 91 98 98 88 78 68 94 90 72 58 63
97 99 100 92 96 94 92 90 71 54 61 57 58 49 60 61 62 60 55 58 42 30 31 44 62 78 80 84 83 85 91 97 96 98 87 80 80 75 60 96 88 65 61
97 100 100 100 100 100 98 83 64 60 58 58 55 43 52 63 63 54 67 52 32 29 31 40 63 70 67 74 77 85 86 87 84 78 79 79 75 78 79 74 92 91 76
100 100 100 100 99 94 91 90 70 56 54 53 55 52 58 64 65 50 62 42 34 39 41 45 50 49 48 51 62 69 68 76 73 76 77 74 77 83 88 82 87 92 95
100 100 100 100 100 100 97 87 70 61 54 56 57 54 68 60 57 64 54 42 38 44 60 84 91 91 65 30 25 23 32 42 48 54 65 66 63 69 84 79 81 84 89
100 100 99 100 100 96 89 76 69 61 58 62 76 67 66 57 67 62 55 46 44 52 67 73 60 72 60 53 37 33 29 31 41 45 56 64 65 51 71 83 76 78 87
100 100 100 97 94 88 84 78 72 68 64 73 78 82 65 57 66 77 60 50 49 55 60 66 54 54 61 46 48 54 62 60 62 60 67 80 64 35 72 84 87 84 81
97 98 95 92 94 90 85 84 77 80 85 88 82 85 90 84 82 90 67 60 60 60 58 61 56 58 63 54 47 65 81 88 99 99 80 55 47 36 22 25 59 98 87
92 93 91 90 88 87 90 93 86 90 99 96 99 93 90 79 98 90 75 66 68 70 66 56 62 63 97 59 52 72 84 85 85 69 65 60 52 45 36 30 38 72 70
89 90 90 89 89 92 93 93 98 100 98 98 98 97 96 89 99 86 76 70 70 72 58 62 64 78 98 62 68 74 73 59 58 68 64 67 68 56 48 44 49 59 74
87 92 94 93 95 98 98 100 100 100 98 97 97 98 97 97 90 100 82 75 68 51 47 59 81 98 97 98 80 85 88 74 60 63 61 60 65 70 58 48 44 46 58
94 99 100 100 100 100 100 100 98 98 98 97 97 98 99 98 98 98 88 63 49 41 38 52 77 94 95 97 89 98 100 88 71 64 60 58 59 62 73 58 50 47 50
100 100 100 100 100 100 100 99 98 98 98 98 97 97 97 97 100 99 89 84 75 72 66 78 89 92 92 95 100 89 94 90 79 71 67 62 61 61 61 72 62 47 46
100 100 100 100 100 100 100 99 99 98 94 97 97 96 96 98 100 95 98 96 95 94 78 71 90 92 95 95 94 87 92 92 83 76 69 66 65 62 61 57 70 64 48
100 100 100 100 100 100 99 99 99 98 98 98 97 96 97 78 82 89 96 99 98 96 92 88 92 90 86 91 81 80 84 81 77 75 72 69 66 65 63 61 56 58 51
100 100 100 100 100 99 99 98 97 98 98 97 97 97 86 63 67 94 100 100 100 100 96 93 88 85 79 86 85 75 73 72 71 71 72 73 72 69 66 62 59 58 51
100 100 100 99 98 98 98 98 98 97 97 98 97 94 90 79 96 93 96 100 100 100 97 93 92 78 65 81 85 81 76 74 72 70 73 71 74 72 68 66 61 59 61
98 98 98 98 98 98 98 98 98 98 97 97 97 98 100 98 99 97 99 98 100 100 97 95 89 68 55 78 82 85 83 80 73 67 71 70 71 74 72 71 68 62 66
98 97 97 97 97 98 98 98 98 98 98 97 100 100 100 100 100 100 100 94 86 82 77 74 64 59 62 88 89 85 94 83 72 70 73 74 70 78 75 74 72 70 66
98 99 97 98 97 97 97 98 98 98 100 100 100 100 99 100 100 100 94 91 84 80 78 83 86 88 75 85 88 80 81 79 68 72 78 79 77 73 80 80 78 77 75
97 98 98 98 97 96 98 100 100 100 100 100 100 100 100 99 93 94 94 87 84 84 92 95 94 92 81 78 90 84 73 70 70 76 78 79 75 75 75 82 81 80 80
98 100 100 100 100 100 100 98 96 96 96 95 99 100 100 100 98 96 95 96 97 96 95 69 49 54 67 87 86 70 63 63 64 67 70 77 78 79 77 82 82 84 85
95 94 97 99 98 98 97 97 95 94 94 92 93 97 99 99 97 95 94 96 96 92 65 83 73 65 67 78 67 61 65 73 75 78 78 79 80 77 76 86 89 89 88
93 94 96 97 97 96 96 96 95 96 96 96 97 95 94 92 91 89 88 86 85 70 66 85 73 68 63 62 64 70 74 75 79 83 84 85 83 84 84 81 85 89 92
97 93 94 96 98 96 94 95 96 95 94 94 94 94 92 92 92 91 86 83 78 74 70 81 77 67 66 72 83 80 74 79 86 93 95 91 88 84 82 83 86 90 91

GFSGL_925_rhum_186.txt.gz
RH
96 99 97 96 98 95 96 99 100 100 100 97 83 79 65 66 63 47 66 63 69 69 70 70 67 66 65 67 63 59 57 55 54 82 93 87 73 69 76 70 60 62 81
100 98 99 100 100 100 100 100 100 100 100 93 95 81 76 75 72 61 55 60 68 65 70 68 69 67 70 73 68 67 70 64 60 72 79 80 74 82 94 86 61 52 60
99 100 100 100 100 100 100 100 100 100 99 91 82 84 93 90 78 74 62 64 72 68 64 68 70 67 71 77 80 78 74 71 71 71 75 73 76 70 84 97 84 70 45
100 100 100 100 100 100 100 100 100 99 100 100 95 96 97 92 79 77 73 80 73 66 72 78 75 72 77 80 85 92 80 72 73 71 67 72 66 74 63 64 69 65 58
100 100 100 100 100 100 100 100 100 100 100 100 100 100 99 98 98 81 76 70 61 67 73 73 80 82 88 90 77 84 85 71 66 60 61 62 69 70 73 73 58 68 74
100 100 100 100 100 100 100 100 100 100 100 100 100 100 100 99 88 81 69 61 60 55 61 66 82 63 58 59 85 88 76 64 54 48 50 57 91 86 84 73 63 65 59
100 100 100 100 100 100 100 100 100 100 100 100 100 100 98 89 87 73 56 59 54 54 56 63 65 70 72 67 59 50 62 63 56 48 49 54 69 79 73 68 60 51 52
100 100 100 100 100 100 100 100 100 100 100 100 100 99 97 93 89 61 58 54 44 56 68 70 71 72 63 62 51 58 68 46 47 62 76 76 80 69 68 58 51 50 56
100 100 100 100 100 100 100 99 99 100 100 99 99 100 99 85 72 61 59 64 75 82 76 65 70 71 64 62 64 93 96 83 47 46 38 25 21 29 69 62 62 53 61
100 100 100 100 100 100 100 99 99 100 100 100 100 100 91 93 80 61 65 75 90 92 96 79 74 70 76 75 87 92 90 97 97 60 42 38 33 26 30 76 71 58 74
100 100 100 100 100 99 99 100 100 100 100 100 100 99 96 96 94 64 71 78 84 85 88 94 95 89 84 74 96 94 94 99 97 96 96 95 95 71 58 38 77 88 84
100 100 100 100 100 100 99 100 100 100 100 99 99 99 100 99 87 95 94 80 82 82 88 91 93 76 97 76 69 96 86 96 97 94 93 92 93 93 94 79 42 55 64
100 100 100 100 100 100 100 100 100 100 98 97 98 98 100 100 100 97 86 82 73 76 92 95 95 88 100 98 98 66 53 91 91 88 85 87 92 96 97 92 92 72 80
100 100 100 100 100 100 100 100 100 99 98 95 96 98 99 100 100 98 99 98 84 95 100 100 93 92 97 96 100 93 91 91 86 82 80 82 81 79 73 73 71 71 66
100 100 100 100 100 100 100 100 100 99 97 96 97 98 99 99 99 98 99 99 100 99 97 95 91 89 90 88 87 90 89 89 84 80 76 74 66 61 59 64 62 56 56
100 100 100 100 100 100 99 100 100 99 99 98 99 98 98 98 97 97 96 100 100 93 96 86 82 84 82 82 78 79 80 84 75 75 74 70 66 62 58 56 57 59 58
100 100 100 99 99 99 99 99 98 100 100 98 98 98 98 95 97 97 97 96 97 95 90 90 85 84 81 75 74 72 73 75 77 75 72 70 66 63 62 59 58 57 54
100 100 100 99 99 99 100 99 97 96 96 100 99 98 98 97 97 96 97 100 100 97 89 86 90 93 87 76 71 68 67 74 79 74 73 73 76 71 68 61 58 62 55
100 99 99 99 98 98 98 99 99 99 98 98 99 99 98 98 98 96 99 97 96 94 95 96 96 94 86 76 69 66 73 79 81 81 77 80 82 71 69 64 59 64 60
100 98 99 99 99 99 99 97 98 98 97 97 97 98 99 98 98 98 98 98 98 97 97 95 93 91 86 82 81 82 82 84 86 88 86 85 84 78 69 68 68 68 54
98 98 98 98 98 98 96 94 95 97 96 96 98 98 96 98 98 98 98 98 98 98 97 90 90 94 94 89 79 80 76 80 83 85 80 83 86 78 70 69 71 69 60
99 100 100 99 99 100 99 95 97 99 98 97 99 98 97 99 98 98 98 98 97 98 95 92 84 85 84 78 76 82 83 88 92 88 87 84 84 80 73 71 72 72 65
100 98 96 95 98 98 99 99 99 99 99 99 99 99 99 98 99 99 98 98 98 98 97 96 94 90 94 96 96 97 94 93 94 93 90 89 85 77 77 74 76 75 73
99 98 91 98 97 97 98 99 99 98 98 98 98 98 98 99 99 98 97 97 99 100 100 100 100 99 98 96 95 97 100 99 97 96 95 90 83 80 78 80 79 76 74
98 100 99 98 97 97 95 94 95 96 98 98 99 98 99 98 99 98 98 99 99 99 98 99 100 85 96 99 100 100 94 73 89 96 98 92 84 85 87 86 81 80 79
99 99 99 98 99 98 98 98 100 100 100 100 100 100 100 100 100 100 100 100 100 100 100 100 100 93 78 94 88 72 62 65 69 75 98 91 92 94 92 90 89 85 82

GFSGL_925_rhum_189.txt.gz
RH
78 86 89 81 100 100 100 99 99 100 100 100 100 97 92 87 78 78 74 78 72 76 74 68 67 68 65 61 54 53 54 43 54 66 67 66 66 60 73 64 69 80 67
76 89 96 88 100 100 100 100 100 100 100 100 100 99 95 92 87 69 76 81 68 68 76 72 76 73 70 66 59 54 55 53 67 76 78 70 70 73 76 60 41 50 66
82 95 98 98 100 100 100 100 100 100 100 100 100 100 95 78 66 68 80 81 70 70 81 89 75 73 74 73 71 70 67 60 68 74 75 72 72 77 87 84 70 56 43
86 99 99 100 100 100 100 100 100 100 100 100 100 100 94 89 82 81 78 84 84 76 69 77 80 83 84 80 81 74 66 71 71 74 75 74 68 73 76 79 76 60 50
96 100 99 99 100 100 100 100 100 100 100 100 100 100 100 98 99 99 98 88 71 73 92 88 85 78 84 88 88 79 73 74 74 73 71 73 71 73 67 64 64 74 70
100 100 100 99 100 100 100 100 100 100 100 100 100 100 100 100 100 99 95 93 86 84 84 83 86 90 88 85 85 81 72 72 67 63 65 69 77 77 88 73 69 74 65
100 100 100 100 100 100 100 100 100 100 100 100 100 100 100 100 100 99 90 78 73 76 72 78 96 98 93 80 85 83 69 60 57 52 57 70 89 84 76 68 62 57 58
100 100 100 100 99 100 100 100 100 100 100 100 100 100 100 100 99 91 78 74 67 64 68 77 79 83 78 75 79 74 68 59 53 52 62 67 76 84 67 57 52 49 60
100 99 99 100 100 100 100 100 100 100 100 99 100 99 99 99 99 97 90 60 63 62 78 71 67 75 68 60 57 72 87 74 59 58 63 60 58 75 74 60 54 54 63
100 100 100 100 100 100 100 99 100 100 99 100 99 100 99 99 100 95 86 82 96 98 80 74 71 62 58 59 56 74 90 96 56 36 25 21 20 40 67 76 70 64 84
100 100 100 100 100 100 100 100 100 100 100 99 99 99 99 98 98 90 81 83 91 94 95 97 92 63 61 65 72 87 82 75 77 77 89 70 65 46 50 74 81 80 83
100 100 100 100 100 100 100 100 100 100 100 100 100 100 99 98 93 80 75 82 84 88 93 94 96 90 91 97 93 95 85 89 91 96 94 94 95 97 97 85 64 82 91
100 100 100 100 100 100 100 100 100 100 100 99 99 99 100 100 99 84 81 86 82 89 94 95 94 98 98 86 100 92 88 97 95 92 90 92 92 97 100 92 71 32 32
100 100 100 99 99 99 100 100 100 100 100 99 94 97 99 100 100 99 88 83 78 91 97 98 93 96 95 95 98 77 94 93 90 87 86 88 91 95 84 82 81 84 79
100 100 100 99 99 99 99 100 100 100 99 99 96 97 98 99 100 100 94 96 92 98 96 95 95 93 85 90 87 87 89 91 89 85 81 83 78 73 67 67 65 63 60
100 99 99 99 99 100 100 100 100 99 99 100 98 98 100 99 98 98 98 96 97 88 97 90 88 86 80 82 80 82 85 88 86 84 79 76 70 64 59 58 60 59 58
99 99 99 99 99 99 99 99 99 100 100 100 99 98 96 97 98 97 97 96 96 93 84 83 88 90 87 80 77 81 85 91 86 77 73 71 67 63 61 58 57 58 59
99 100 99 99 99 99 99 99 99 98 98 99 100 98 99 98 98 98 97 97 99 91 83 86 91 94 91 84 84 88 90 88 81 77 75 74 76 71 66 64 58 62 58
98 99 99 99 99 99 100 100 99 100 99 99 99 99 99 98 97 99 97 94 93 96 97 95 96 95 93 96 92 86 79 78 82 81 75 78 83 76 71 67 59 59 64
98 96 97 98 98 98 98 100 100 99 99 98 98 98 99 98 98 98 98 98 98 98 98 98 98 97 99 96 90 84 86 86 86 83 82 84 86 84 73 68 65 65 64
94 97 92 89 94 95 95 95 98 99 97 98 99 98 98 96 97 96 98 99 98 97 98 98 98 96 95 96 97 93 82 79 78 81 80 90 90 85 75 70 70 68 63
94 93 93 90 92 95 92 95 96 96 93 96 99 98 97 98 98 98 98 98 98 99 97 96 97 96 95 95 94 90 86 81 84 85 85 93 90 84 80 70 70 70 66
94 92 88 97 95 96 98 96 98 98 98 99 99 99 98 98 98 98 98 97 96 95 95 95 95 96 94 91 85 84 84 85 93 93 97 96 90 81 80 78 75 77 78
99 95 93 96 98 99 98 98 98 97 99 98 98 98 99 99 98 98 96 95 95 95 92 92 94 92 95 95 94 94 95 95 94 95 96 98 96 94 96 83 78 76 79
98 97 97 98 97 95 94 92 97 96 96 93 93 97 100 99 99 95 94 95 96 95 95 96 97 95 96 93 94 96 96 94 96 96 97 95 94 87 78 84 84 92 86
96 97 97 98 97 93 93 92 93 94 95 93 93 93 95 99 99 96 98 98 98 96 94 95 96 97 96 98 100 93 89 82 91 94 94 87 89 94 93 95 97 94 96